Time,TemperatureF,DewpointF,PressureIn,WindDirection,WindDirectionDegrees,WindSpeedMPH,WindSpeedGustMPH,Humidity,HourlyPrecipIn,Conditions,Clouds,dailyrainin,SoftwareType,DateUTC
2013-03-03 00:03:00,33.4,27.0,29.97,SW,228,2.0,4.0,77,0.00,,,0.00,Wunderground v.1.15,2013-03-03 09:03:00,
2013-03-03 00:09:00,33.3,26.9,29.97,SW,228,0.0,4.0,77,0.00,,,0.00,Wunderground v.1.15,2013-03-03 09:09:00,
2013-03-03 00:15:00,33.3,26.9,29.97,SW,228,0.0,4.0,77,0.00,,,0.00,Wunderground v.1.15,2013-03-03 09:15:00,
2013-03-03 00:21:00,33.3,26.9,29.97,SW,225,0.0,4.0,77,0.00,,,0.00,Wunderground v.1.15,2013-03-03 09:21:00,
2013-03-03 00:26:00,33.2,26.8,29.97,SW,225,0.0,4.0,77,0.00,,,0.00,Wunderground v.1.15,2013-03-03 09:26:00,
2013-03-03 00:32:00,33.3,26.9,29.97,SW,222,0.0,4.0,77,0.00,,,0.00,Wunderground v.1.15,2013-03-03 09:32:00,
2013-03-03 00:38:00,33.2,27.1,29.98,SW,222,1.0,4.0,78,0.00,,,0.00,Wunderground v.1.15,2013-03-03 09:38:00,
2013-03-03 00:44:00,33.1,27.0,29.98,WSW,245,1.0,4.0,78,0.00,,,0.00,Wunderground v.1.15,2013-03-03 09:44:00,
2013-03-03 00:49:00,33.0,26.9,29.98,West,263,1.0,4.0,78,0.00,,,0.00,Wunderground v.1.15,2013-03-03 09:49:00,
2013-03-03 00:54:00,33.1,27.0,29.98,West,264,2.0,4.0,78,0.00,,,0.00,Wunderground v.1.15,2013-03-03 09:54:00,
2013-03-03 01:00:00,33.4,27.3,29.98,WSW,252,1.0,3.0,78,0.00,,,0.00,Wunderground v.1.15,2013-03-03 10:00:00,
2013-03-03 01:05:00,33.4,27.0,29.98,WSW,252,1.0,3.0,77,0.00,,,0.00,Wunderground v.1.15,2013-03-03 10:05:00,
2013-03-03 01:11:00,33.5,27.4,29.99,WSW,253,0.0,3.0,78,0.00,,,0.00,Wunderground v.1.15,2013-03-03 10:11:00,
2013-03-03 01:17:00,33.5,27.4,29.98,WSW,254,1.0,3.0,78,0.00,,,0.00,Wunderground v.1.15,2013-03-03 10:17:00,
2013-03-03 01:23:00,33.4,27.0,29.98,WNW,292,3.0,6.0,77,0.00,,,0.00,Wunderground v.1.15,2013-03-03 10:23:00,
2013-03-03 01:28:00,33.1,27.0,29.98,NW,319,4.0,6.0,78,0.00,,,0.00,Wunderground v.1.15,2013-03-03 10:28:00,
2013-03-03 01:34:00,33.1,27.3,29.98,NNW,345,4.0,6.0,79,0.00,,,0.00,Wunderground v.1.15,2013-03-03 10:34:00,
2013-03-03 01:39:00,33.7,27.6,29.98,North,4,4.0,7.0,78,0.00,,,0.00,Wunderground v.1.15,2013-03-03 10:39:00,
2013-03-03 01:44:00,34.1,27.6,29.98,NNE,25,3.0,7.0,77,0.00,,,0.00,Wunderground v.1.15,2013-03-03 10:44:00,
2013-03-03 01:50:00,34.3,27.8,29.98,North,359,3.0,3.0,77,0.00,,,0.00,Wunderground v.1.15,2013-03-03 10:50:00,
2013-03-03 01:56:00,34.7,27.9,29.98,NNW,338,3.0,7.0,76,0.00,,,0.00,Wunderground v.1.15,2013-03-03 10:56:00,
2013-03-03 02:02:00,35.1,28.0,29.98,NE,34,4.0,12.0,75,0.00,,,0.00,Wunderground v.1.15,2013-03-03 11:02:00,
2013-03-03 02:08:00,35.3,27.8,29.98,NNE,27,5.0,12.0,74,0.00,,,0.00,Wunderground v.1.15,2013-03-03 11:08:00,
2013-03-03 02:14:00,35.6,27.8,29.98,NE,53,6.0,12.0,73,0.00,,,0.01,Wunderground v.1.15,2013-03-03 11:14:00,
2013-03-03 02:20:00,35.8,27.7,29.98,NE,48,7.0,7.0,72,0.00,,,0.01,Wunderground v.1.15,2013-03-03 11:20:00,
2013-03-03 02:26:00,35.7,27.6,29.98,NNE,18,5.0,12.0,72,0.00,,,0.01,Wunderground v.1.15,2013-03-03 11:26:00,
2013-03-03 02:32:00,36.0,27.5,29.98,NNE,25,5.0,12.0,71,0.00,,,0.01,Wunderground v.1.15,2013-03-03 11:32:00,
2013-03-03 02:37:00,36.2,27.4,29.98,ENE,77,6.0,12.0,70,0.00,,,0.01,Wunderground v.1.15,2013-03-03 11:37:00,
2013-03-03 02:43:00,35.9,27.4,29.98,East,91,4.0,12.0,71,0.00,,,0.01,Wunderground v.1.15,2013-03-03 11:43:00,
2013-03-03 02:48:00,35.4,27.3,29.98,NNE,33,2.0,12.0,72,0.00,,,0.01,Wunderground v.1.15,2013-03-03 11:48:00,
2013-03-03 02:54:00,35.0,27.2,29.98,NNE,17,1.0,12.0,73,0.00,,,0.01,Wunderground v.1.15,2013-03-03 11:54:00,
2013-03-03 03:00:00,35.0,27.2,29.98,East,95,2.0,2.0,73,0.00,,,0.01,Wunderground v.1.15,2013-03-03 12:00:00,
2013-03-03 03:06:00,34.9,27.1,29.98,ENE,75,4.0,7.0,73,0.00,,,0.01,Wunderground v.1.15,2013-03-03 12:06:00,
2013-03-03 03:11:00,35.0,27.2,29.98,NNE,15,4.0,7.0,73,0.00,,,0.01,Wunderground v.1.15,2013-03-03 12:11:00,
2013-03-03 03:17:00,35.0,27.5,29.98,East,83,4.0,9.0,74,0.00,,,0.01,Wunderground v.1.15,2013-03-03 12:17:00,
2013-03-03 03:22:00,35.1,27.6,29.98,North,354,5.0,9.0,74,0.00,,,0.01,Wunderground v.1.15,2013-03-03 12:22:00,
2013-03-03 03:28:00,35.4,27.6,29.98,NNE,12,7.0,13.0,73,0.00,,,0.01,Wunderground v.1.15,2013-03-03 12:28:00,
2013-03-03 03:33:00,35.7,27.6,29.98,ENE,73,7.0,11.0,72,0.00,,,0.01,Wunderground v.1.15,2013-03-03 12:33:00,
2013-03-03 03:38:00,36.2,27.7,29.98,ENE,62,7.0,13.0,71,0.00,,,0.01,Wunderground v.1.15,2013-03-03 12:38:00,
2013-03-03 03:44:00,36.3,27.4,29.98,NE,35,9.0,14.0,70,0.00,,,0.01,Wunderground v.1.15,2013-03-03 12:44:00,
2013-03-03 03:49:00,36.1,27.6,29.98,NE,55,9.0,14.0,71,0.00,,,0.01,Wunderground v.1.15,2013-03-03 12:49:00,
2013-03-03 03:55:00,35.9,27.7,29.99,ESE,120,6.0,10.0,72,0.00,,,0.01,Wunderground v.1.15,2013-03-03 12:55:00,
2013-03-03 04:00:00,35.8,27.7,29.99,North,359,6.0,13.0,72,0.00,,,0.01,Wunderground v.1.15,2013-03-03 13:00:00,
2013-03-03 04:06:00,36.1,27.6,29.99,NE,48,7.0,18.0,71,0.00,,,0.01,Wunderground v.1.15,2013-03-03 13:06:00,
2013-03-03 04:12:00,36.4,27.5,29.99,NNE,18,8.0,13.0,70,0.00,,,0.01,Wunderground v.1.15,2013-03-03 13:12:00,
2013-03-03 04:17:00,36.5,27.6,29.99,NE,45,8.0,19.0,70,0.00,,,0.01,Wunderground v.1.15,2013-03-03 13:17:00,
2013-03-03 04:23:00,36.5,27.6,29.99,North,4,8.0,13.0,70,0.00,,,0.01,Wunderground v.1.15,2013-03-03 13:23:00,
2013-03-03 04:28:00,36.6,27.7,29.99,NE,39,8.0,16.0,70,0.00,,,0.01,Wunderground v.1.15,2013-03-03 13:28:00,
2013-03-03 04:33:00,36.6,27.7,29.99,NNE,29,8.0,14.0,70,0.00,,,0.01,Wunderground v.1.15,2013-03-03 13:33:00,
2013-03-03 04:38:00,36.4,27.5,29.99,NE,34,8.0,14.0,70,0.00,,,0.01,Wunderground v.1.15,2013-03-03 13:38:00,
2013-03-03 04:44:00,36.5,27.6,29.99,NNE,33,9.0,13.0,70,0.00,,,0.01,Wunderground v.1.15,2013-03-03 13:44:00,
2013-03-03 04:50:00,36.4,27.5,29.99,NNW,345,9.0,13.0,70,0.00,,,0.01,Wunderground v.1.15,2013-03-03 13:50:00,
2013-03-03 04:56:00,36.5,27.3,29.99,ENE,77,9.0,18.0,69,0.00,,,0.01,Wunderground v.1.15,2013-03-03 13:56:00,
2013-03-03 05:01:00,36.8,27.6,29.99,NE,46,10.0,19.0,69,0.00,,,0.01,Wunderground v.1.15,2013-03-03 14:01:00,
2013-03-03 05:06:00,36.6,27.4,29.99,NNW,341,10.0,19.0,69,0.00,,,0.01,Wunderground v.1.15,2013-03-03 14:06:00,
2013-03-03 05:12:00,36.5,27.6,30.00,NE,45,7.0,19.0,70,0.00,,,0.01,Wunderground v.1.15,2013-03-03 14:12:00,
2013-03-03 05:18:00,36.5,27.3,30.00,NNE,27,7.0,19.0,69,0.00,,,0.01,Wunderground v.1.15,2013-03-03 14:18:00,
2013-03-03 05:23:00,36.8,27.6,30.00,NE,38,9.0,19.0,69,0.00,,,0.01,Wunderground v.1.15,2013-03-03 14:23:00,
2013-03-03 05:29:00,36.6,27.4,30.00,NNE,31,9.0,19.0,69,0.00,,,0.01,Wunderground v.1.15,2013-03-03 14:29:00,
2013-03-03 05:35:00,36.6,27.4,30.00,NNW,335,8.0,19.0,69,0.00,,,0.01,Wunderground v.1.15,2013-03-03 14:35:00,
2013-03-03 05:40:00,36.6,27.4,30.00,NE,52,8.0,19.0,69,0.00,,,0.01,Wunderground v.1.15,2013-03-03 14:40:00,
2013-03-03 05:46:00,36.6,27.4,30.01,NE,36,9.0,19.0,69,0.00,,,0.01,Wunderground v.1.15,2013-03-03 14:46:00,
2013-03-03 05:51:00,36.6,27.4,30.01,NNE,21,9.0,10.0,69,0.00,,,0.01,Wunderground v.1.15,2013-03-03 14:51:00,
2013-03-03 05:57:00,36.7,27.5,30.01,NNE,30,9.0,19.0,69,0.00,,,0.01,Wunderground v.1.15,2013-03-03 14:57:00,
2013-03-03 06:02:00,36.6,27.7,30.01,NE,39,9.0,21.0,70,0.00,,,0.01,Wunderground v.1.15,2013-03-03 15:02:00,
2013-03-03 06:08:00,36.6,27.7,30.01,North,354,9.0,21.0,70,0.00,,,0.01,Wunderground v.1.15,2013-03-03 15:08:00,
2013-03-03 06:14:00,36.2,27.7,30.00,NNE,12,8.0,21.0,71,0.00,,,0.01,Wunderground v.1.15,2013-03-03 15:14:00,
2013-03-03 06:20:00,36.3,27.4,30.01,NE,37,7.0,21.0,70,0.00,,,0.01,Wunderground v.1.15,2013-03-03 15:20:00,
2013-03-03 06:26:00,36.5,27.6,30.01,NNE,27,9.0,21.0,70,0.00,,,0.01,Wunderground v.1.15,2013-03-03 15:26:00,
2013-03-03 06:32:00,36.4,27.5,30.01,North,4,8.0,21.0,70,0.00,,,0.01,Wunderground v.1.15,2013-03-03 15:32:00,
2013-03-03 06:38:00,36.5,27.3,30.01,NE,54,8.0,21.0,69,0.00,,,0.01,Wunderground v.1.15,2013-03-03 15:38:00,
2013-03-03 06:44:00,36.8,27.2,30.01,ENE,75,8.0,21.0,68,0.00,,,0.01,Wunderground v.1.15,2013-03-03 15:44:00,
2013-03-03 06:49:00,36.8,27.2,30.01,NNE,25,9.0,21.0,68,0.00,,,0.01,Wunderground v.1.15,2013-03-03 15:49:00,
2013-03-03 06:55:00,36.9,27.3,30.01,NE,52,9.0,21.0,68,0.00,,,0.01,Wunderground v.1.15,2013-03-03 15:55:00,
2013-03-03 07:00:00,36.9,27.7,30.01,NNW,327,9.0,22.0,69,0.00,,,0.01,Wunderground v.1.15,2013-03-03 16:00:00,
2013-03-03 07:06:00,36.6,27.4,30.02,NNW,335,8.0,22.0,69,0.00,,,0.01,Wunderground v.1.15,2013-03-03 16:06:00,
2013-03-03 07:12:00,36.7,27.8,30.02,NE,35,8.0,22.0,70,0.00,,,0.01,Wunderground v.1.15,2013-03-03 16:12:00,
2013-03-03 07:18:00,36.7,27.5,30.02,ENE,65,8.0,22.0,69,0.00,,,0.01,Wunderground v.1.15,2013-03-03 16:18:00,
2013-03-03 07:24:00,36.9,27.3,30.02,North,4,8.0,22.0,68,0.00,,,0.01,Wunderground v.1.15,2013-03-03 16:24:00,
2013-03-03 07:29:00,37.0,27.4,30.02,NNW,347,9.0,22.0,68,0.00,,,0.01,Wunderground v.1.15,2013-03-03 16:29:00,
2013-03-03 07:35:00,36.9,27.3,30.02,NE,44,8.0,22.0,68,0.00,,,0.01,Wunderground v.1.15,2013-03-03 16:35:00,
2013-03-03 07:41:00,37.0,27.4,30.03,NNW,332,7.0,22.0,68,0.00,,,0.01,Wunderground v.1.15,2013-03-03 16:41:00,
2013-03-03 07:46:00,37.0,27.1,30.03,NNW,343,8.0,22.0,67,0.00,,,0.01,Wunderground v.1.15,2013-03-03 16:46:00,
2013-03-03 07:52:00,37.0,27.4,30.03,NE,50,8.0,22.0,68,0.00,,,0.01,Wunderground v.1.15,2013-03-03 16:52:00,
2013-03-03 07:57:00,36.9,27.3,30.04,NE,43,8.0,22.0,68,0.00,,,0.01,Wunderground v.1.15,2013-03-03 16:57:00,
2013-03-03 08:02:00,36.9,27.7,30.04,North,359,8.0,18.0,69,0.00,,,0.01,Wunderground v.1.15,2013-03-03 17:02:00,
2013-03-03 08:08:00,36.8,27.6,30.04,NE,45,9.0,18.0,69,0.00,,,0.01,Wunderground v.1.15,2013-03-03 17:08:00,
2013-03-03 08:14:00,36.7,27.5,30.04,NNE,29,7.0,18.0,69,0.00,,,0.01,Wunderground v.1.15,2013-03-03 17:14:00,
2013-03-03 08:20:00,36.8,27.6,30.03,NNE,28,7.0,7.0,69,0.00,,,0.01,Wunderground v.1.15,2013-03-03 17:20:00,
2013-03-03 08:25:00,36.9,27.3,30.04,NNE,32,7.0,18.0,68,0.00,,,0.01,Wunderground v.1.15,2013-03-03 17:25:00,
2013-03-03 08:31:00,37.0,27.8,30.04,NNE,31,8.0,18.0,69,0.00,,,0.01,Wunderground v.1.15,2013-03-03 17:31:00,
2013-03-03 08:36:00,36.9,27.3,30.04,NE,41,8.0,18.0,68,0.00,,,0.01,Wunderground v.1.15,2013-03-03 17:36:00,
2013-03-03 08:42:00,37.2,27.2,30.05,NNW,346,9.0,18.0,67,0.00,,,0.01,Wunderground v.1.15,2013-03-03 17:42:00,
2013-03-03 08:48:00,37.1,27.2,30.05,ENE,77,8.0,18.0,67,0.00,,,0.01,Wunderground v.1.15,2013-03-03 17:48:00,
2013-03-03 08:53:00,37.1,27.2,30.05,NNE,27,7.0,18.0,67,0.00,,,0.01,Wunderground v.1.15,2013-03-03 17:53:00,
2013-03-03 08:59:00,37.1,27.5,30.05,NE,55,8.0,18.0,68,0.00,,,0.01,Wunderground v.1.15,2013-03-03 17:59:00,
2013-03-03 09:05:00,37.1,27.5,30.06,NNE,25,8.0,19.0,68,0.00,,,0.01,Wunderground v.1.15,2013-03-03 18:05:00,
2013-03-03 09:11:00,37.0,27.8,30.06,NNE,23,7.0,19.0,69,0.00,,,0.01,Wunderground v.1.15,2013-03-03 18:11:00,
2013-03-03 09:16:00,37.0,27.4,30.06,NE,38,6.0,19.0,68,0.00,,,0.01,Wunderground v.1.15,2013-03-03 18:16:00,
2013-03-03 09:21:00,37.2,27.2,30.07,NW,315,7.0,19.0,67,0.00,,,0.01,Wunderground v.1.15,2013-03-03 18:21:00,
2013-03-03 09:27:00,37.3,27.3,30.07,NNE,16,7.0,19.0,67,0.00,,,0.01,Wunderground v.1.15,2013-03-03 18:27:00,
2013-03-03 09:32:00,37.2,27.2,30.07,North,354,5.0,19.0,67,0.00,,,0.01,Wunderground v.1.15,2013-03-03 18:32:00,
2013-03-03 09:38:00,37.1,27.5,30.07,NE,56,5.0,19.0,68,0.00,,,0.01,Wunderground v.1.15,2013-03-03 18:38:00,
2013-03-03 09:44:00,37.1,27.5,30.07,NE,34,6.0,19.0,68,0.00,,,0.01,Wunderground v.1.15,2013-03-03 18:44:00,
2013-03-03 09:50:00,37.1,27.5,30.07,NNE,29,6.0,6.0,68,0.00,,,0.01,Wunderground v.1.15,2013-03-03 18:50:00,
2013-03-03 09:55:00,37.2,27.6,30.08,NE,46,6.0,19.0,68,0.00,,,0.01,Wunderground v.1.15,2013-03-03 18:55:00,
2013-03-03 10:00:00,37.0,28.1,30.08,NNE,25,7.0,13.0,70,0.00,,,0.01,Wunderground v.1.15,2013-03-03 19:00:00,
2013-03-03 10:06:00,36.9,28.0,30.08,NW,312,7.0,13.0,70,0.00,,,0.01,Wunderground v.1.15,2013-03-03 19:06:00,
2013-03-03 10:12:00,37.3,27.3,30.09,NNE,33,8.0,13.0,67,0.00,,,0.01,Wunderground v.1.15,2013-03-03 19:12:00,
2013-03-03 10:18:00,37.3,27.7,30.09,NNE,14,6.0,13.0,68,0.00,,,0.01,Wunderground v.1.15,2013-03-03 19:18:00,
2013-03-03 10:24:00,37.4,27.8,30.09,NE,34,6.0,13.0,68,0.00,,,0.01,Wunderground v.1.15,2013-03-03 19:24:00,
2013-03-03 10:30:00,37.5,27.9,30.09,NNE,31,7.0,13.0,68,0.00,,,0.01,Wunderground v.1.15,2013-03-03 19:30:00,
2013-03-03 10:36:00,37.5,27.9,30.09,NNE,23,9.0,16.0,68,0.00,,,0.01,Wunderground v.1.15,2013-03-03 19:36:00,
2013-03-03 10:42:00,37.4,28.2,30.08,NW,322,8.0,13.0,69,0.00,,,0.01,Wunderground v.1.15,2013-03-03 19:42:00,
2013-03-03 10:48:00,37.3,28.1,30.09,NE,34,7.0,13.0,69,0.00,,,0.01,Wunderground v.1.15,2013-03-03 19:48:00,
2013-03-03 10:54:00,37.3,27.7,30.09,NE,41,8.0,13.0,68,0.00,,,0.01,Wunderground v.1.15,2013-03-03 19:54:00,
2013-03-03 10:59:00,37.4,27.8,30.10,NE,35,8.0,13.0,68,0.00,,,0.01,Wunderground v.1.15,2013-03-03 19:59:00,
2013-03-03 11:04:00,37.5,27.9,30.10,NNE,31,8.0,16.0,68,0.00,,,0.01,Wunderground v.1.15,2013-03-03 20:04:00,
2013-03-03 11:09:00,37.5,27.9,30.10,ENE,59,8.0,16.0,68,0.00,,,0.01,Wunderground v.1.15,2013-03-03 20:09:00,
2013-03-03 11:15:00,37.5,27.9,30.10,East,95,7.0,16.0,68,0.00,,,0.01,Wunderground v.1.15,2013-03-03 20:15:00,
2013-03-03 11:21:00,36.6,28.4,30.10,ENE,64,7.0,11.0,72,0.00,,,0.01,Wunderground v.1.15,2013-03-03 20:21:00,
2013-03-03 11:27:00,37.2,28.0,30.10,NE,43,8.0,16.0,69,0.00,,,0.01,Wunderground v.1.15,2013-03-03 20:27:00,
2013-03-03 11:32:00,37.3,28.4,30.11,NE,40,9.0,16.0,70,0.00,,,0.01,Wunderground v.1.15,2013-03-03 20:32:00,
2013-03-03 11:38:00,37.1,28.6,30.11,NE,56,9.0,16.0,71,0.00,,,0.01,Wunderground v.1.15,2013-03-03 20:38:00,
2013-03-03 11:43:00,37.0,28.5,30.11,NE,52,8.0,16.0,71,0.00,,,0.01,Wunderground v.1.15,2013-03-03 20:43:00,
2013-03-03 11:49:00,37.3,28.1,30.11,NE,51,8.0,17.0,69,0.00,,,0.01,Wunderground v.1.15,2013-03-03 20:49:00,
2013-03-03 11:54:00,37.5,27.9,30.11,NE,38,10.0,16.0,68,0.00,,,0.01,Wunderground v.1.15,2013-03-03 20:54:00,
2013-03-03 12:00:00,37.7,27.4,30.11,East,80,9.0,17.0,66,0.00,,,0.01,Wunderground v.1.15,2013-03-03 21:00:00,
2013-03-03 12:06:00,37.7,27.4,30.12,NNE,26,9.0,17.0,66,0.00,,,0.01,Wunderground v.1.15,2013-03-03 21:06:00,
2013-03-03 12:12:00,37.7,27.7,30.12,NE,52,10.0,17.0,67,0.00,,,0.01,Wunderground v.1.15,2013-03-03 21:12:00,
2013-03-03 12:17:00,37.6,28.0,30.13,ENE,60,9.0,17.0,68,0.00,,,0.01,Wunderground v.1.15,2013-03-03 21:17:00,
2013-03-03 12:23:00,37.4,28.5,30.13,NE,51,9.0,17.0,70,0.00,,,0.01,Wunderground v.1.15,2013-03-03 21:23:00,
2013-03-03 12:28:00,37.5,28.2,30.14,ENE,68,9.0,17.0,69,0.00,,,0.01,Wunderground v.1.15,2013-03-03 21:28:00,
2013-03-03 12:34:00,37.5,28.6,30.14,ENE,69,10.0,17.0,70,0.00,,,0.01,Wunderground v.1.15,2013-03-03 21:34:00,
2013-03-03 12:40:00,37.4,28.5,30.14,NE,56,9.0,9.0,70,0.00,,,0.00,Wunderground v.1.15,2013-03-03 21:40:00,
2013-03-03 12:46:00,37.6,28.3,30.14,East,88,9.0,17.0,69,0.00,,,0.00,Wunderground v.1.15,2013-03-03 21:46:00,
2013-03-03 12:52:00,37.5,28.6,30.15,NE,34,11.0,17.0,70,0.00,,,0.00,Wunderground v.1.15,2013-03-03 21:52:00,
2013-03-03 12:58:00,37.3,29.1,30.15,NNE,16,9.0,17.0,72,0.00,,,0.00,Wunderground v.1.15,2013-03-03 21:58:00,
2013-03-03 13:04:00,37.0,29.5,30.15,NE,43,9.0,17.0,74,0.00,,,0.00,Wunderground v.1.15,2013-03-03 22:04:00,
2013-03-03 13:10:00,36.9,29.7,30.15,NE,35,7.0,17.0,75,0.00,,,0.00,Wunderground v.1.15,2013-03-03 22:10:00,
2013-03-03 13:16:00,36.9,29.7,30.15,NE,35,8.0,17.0,75,0.00,,,0.00,Wunderground v.1.15,2013-03-03 22:16:00,
2013-03-03 13:21:00,37.0,29.8,30.15,NNE,21,7.0,17.0,75,0.00,,,0.00,Wunderground v.1.15,2013-03-03 22:21:00,
2013-03-03 13:27:00,37.2,29.3,30.15,NE,54,6.0,17.0,73,0.00,,,0.00,Wunderground v.1.15,2013-03-03 22:27:00,
2013-03-03 13:32:00,37.4,29.2,30.16,NE,34,6.0,17.0,72,0.00,,,0.00,Wunderground v.1.15,2013-03-03 22:32:00,
2013-03-03 13:38:00,37.7,29.5,30.16,East,81,7.0,17.0,72,0.00,,,0.00,Wunderground v.1.15,2013-03-03 22:38:00,
2013-03-03 13:44:00,37.9,29.7,30.16,NE,55,6.0,17.0,72,0.00,,,0.00,Wunderground v.1.15,2013-03-03 22:44:00,
2013-03-03 13:50:00,38.1,29.5,30.15,NNE,27,6.0,6.0,71,0.00,,,0.00,Wunderground v.1.15,2013-03-03 22:50:00,
2013-03-03 13:56:00,38.2,30.0,30.15,ENE,66,7.0,17.0,72,0.00,,,0.00,Wunderground v.1.15,2013-03-03 22:56:00,
2013-03-03 14:02:00,37.5,29.6,30.16,ENE,60,8.0,15.0,73,0.00,,,0.00,Wunderground v.1.15,2013-03-03 23:02:00,
2013-03-03 14:08:00,37.5,29.3,30.16,NNE,30,8.0,15.0,72,0.00,,,0.00,Wunderground v.1.15,2013-03-03 23:08:00,
2013-03-03 14:14:00,37.6,29.0,30.16,NE,48,8.0,15.0,71,0.00,,,0.00,Wunderground v.1.15,2013-03-03 23:14:00,
2013-03-03 14:20:00,37.8,28.5,30.16,NNE,30,9.0,9.0,69,0.00,,,0.00,Wunderground v.1.15,2013-03-03 23:20:00,
2013-03-03 14:26:00,37.9,29.0,30.16,NE,35,9.0,15.0,70,0.00,,,0.00,Wunderground v.1.15,2013-03-03 23:26:00,
2013-03-03 14:32:00,38.0,28.4,30.16,NNE,21,9.0,15.0,68,0.00,,,0.00,Wunderground v.1.15,2013-03-03 23:32:00,
2013-03-03 14:38:00,38.1,28.1,30.16,ENE,68,8.0,15.0,67,0.00,,,0.00,Wunderground v.1.15,2013-03-03 23:38:00,
2013-03-03 14:43:00,38.1,28.1,30.16,ENE,58,7.0,15.0,67,0.00,,,0.00,Wunderground v.1.15,2013-03-03 23:43:00,
2013-03-03 14:48:00,38.0,28.0,30.16,NE,47,7.0,15.0,67,0.00,,,0.00,Wunderground v.1.15,2013-03-03 23:48:00,
2013-03-03 14:54:00,38.0,28.4,30.16,North,4,5.0,15.0,68,0.00,,,0.00,Wunderground v.1.15,2013-03-03 23:54:00,
2013-03-03 15:00:00,37.9,28.3,30.16,NNE,33,6.0,14.0,68,0.00,,,0.00,Wunderground v.1.15,2013-03-04 00:00:00,
2013-03-03 15:06:00,37.8,28.5,30.16,North,9,6.0,14.0,69,0.00,,,0.00,Wunderground v.1.15,2013-03-04 00:06:00,
2013-03-03 15:11:00,37.7,28.8,30.17,NNW,347,6.0,14.0,70,0.00,,,0.00,Wunderground v.1.15,2013-03-04 00:11:00,
2013-03-03 15:17:00,37.5,28.9,30.17,NE,44,6.0,14.0,71,0.00,,,0.00,Wunderground v.1.15,2013-03-04 00:17:00,
2013-03-03 15:23:00,37.3,28.8,30.17,NNE,33,7.0,14.0,71,0.00,,,0.00,Wunderground v.1.15,2013-03-04 00:23:00,
2013-03-03 15:28:00,37.4,28.9,30.17,NE,41,7.0,14.0,71,0.00,,,0.00,Wunderground v.1.15,2013-03-04 00:28:00,
2013-03-03 15:33:00,37.5,28.6,30.17,NNW,343,7.0,14.0,70,0.00,,,0.00,Wunderground v.1.15,2013-03-04 00:33:00,
2013-03-03 15:39:00,37.6,28.7,30.17,NE,37,8.0,14.0,70,0.00,,,0.00,Wunderground v.1.15,2013-03-04 00:39:00,
2013-03-03 15:45:00,37.5,28.6,30.17,NE,37,6.0,14.0,70,0.00,,,0.00,Wunderground v.1.15,2013-03-04 00:45:00,
2013-03-03 15:51:00,37.6,29.0,30.18,NNE,23,6.0,14.0,71,0.00,,,0.00,Wunderground v.1.15,2013-03-04 00:51:00,
2013-03-03 15:56:00,37.6,28.7,30.18,NE,37,6.0,14.0,70,0.00,,,0.00,Wunderground v.1.15,2013-03-04 00:56:00,
2013-03-03 16:01:00,37.7,28.8,30.18,NNW,346,6.0,10.0,70,0.00,,,0.00,Wunderground v.1.15,2013-03-04 01:01:00,
2013-03-03 16:07:00,37.6,29.0,30.17,NE,40,7.0,14.0,71,0.00,,,0.00,Wunderground v.1.15,2013-03-04 01:07:00,
2013-03-03 16:13:00,37.5,28.9,30.17,NNE,30,6.0,14.0,71,0.00,,,0.00,Wunderground v.1.15,2013-03-04 01:13:00,
2013-03-03 16:19:00,37.6,29.0,30.18,ENE,58,7.0,14.0,71,0.00,,,0.00,Wunderground v.1.15,2013-03-04 01:19:00,
2013-03-03 16:24:00,37.7,29.1,30.18,NNE,28,7.0,14.0,71,0.00,,,0.00,Wunderground v.1.15,2013-03-04 01:24:00,
2013-03-03 16:30:00,37.6,29.0,30.18,NNE,25,6.0,6.0,71,0.00,,,0.00,Wunderground v.1.15,2013-03-04 01:30:00,
2013-03-03 16:35:00,37.5,29.3,30.18,NE,56,7.0,14.0,72,0.00,,,0.00,Wunderground v.1.15,2013-03-04 01:35:00,
2013-03-03 16:41:00,37.5,29.3,30.18,NE,35,7.0,13.0,72,0.00,,,0.00,Wunderground v.1.15,2013-03-04 01:41:00,
2013-03-03 16:46:00,37.5,29.3,30.18,NNE,12,8.0,14.0,72,0.00,,,0.00,Wunderground v.1.15,2013-03-04 01:46:00,
2013-03-03 16:52:00,37.5,29.3,30.19,NE,48,8.0,14.0,72,0.00,,,0.00,Wunderground v.1.15,2013-03-04 01:52:00,
2013-03-03 16:58:00,37.5,29.3,30.19,NE,48,8.0,14.0,72,0.00,,,0.00,Wunderground v.1.15,2013-03-04 01:58:00,
2013-03-03 17:03:00,37.6,29.4,30.19,NNE,18,7.0,20.0,72,0.00,,,0.00,Wunderground v.1.15,2013-03-04 02:03:00,
2013-03-03 17:09:00,37.8,29.6,30.19,NNE,23,7.0,20.0,72,0.00,,,0.00,Wunderground v.1.15,2013-03-04 02:09:00,
2013-03-03 17:15:00,37.8,29.6,30.19,ENE,73,6.0,20.0,72,0.00,,,0.00,Wunderground v.1.15,2013-03-04 02:15:00,
2013-03-03 17:21:00,37.6,29.7,30.20,NE,50,6.0,20.0,73,0.00,,,0.00,Wunderground v.1.15,2013-03-04 02:21:00,
2013-03-03 17:26:00,37.5,29.6,30.19,NE,43,7.0,20.0,73,0.00,,,0.00,Wunderground v.1.15,2013-03-04 02:26:00,
2013-03-03 17:31:00,37.4,29.5,30.20,NE,37,7.0,8.0,73,0.00,,,0.00,Wunderground v.1.15,2013-03-04 02:31:00,
2013-03-03 17:37:00,37.4,29.5,30.20,NNE,21,7.0,20.0,73,0.00,,,0.00,Wunderground v.1.15,2013-03-04 02:37:00,
2013-03-03 17:43:00,37.3,29.8,30.20,ENE,77,8.0,20.0,74,0.00,,,0.00,Wunderground v.1.15,2013-03-04 02:43:00,
2013-03-03 17:49:00,37.1,29.9,30.20,NE,44,8.0,20.0,75,0.00,,,0.00,Wunderground v.1.15,2013-03-04 02:49:00,
2013-03-03 17:54:00,36.8,29.9,30.20,NNE,16,8.0,20.0,76,0.00,,,0.00,Wunderground v.1.15,2013-03-04 02:54:00,
2013-03-03 18:00:00,36.6,29.7,30.20,NE,50,8.0,16.0,76,0.00,,,0.00,Wunderground v.1.15,2013-03-04 03:00:00,
2013-03-03 18:06:00,36.8,29.9,30.20,NE,41,9.0,16.0,76,0.00,,,0.00,Wunderground v.1.15,2013-03-04 03:06:00,
2013-03-03 18:12:00,36.7,29.8,30.21,ENE,59,9.0,16.0,76,0.00,,,0.00,Wunderground v.1.15,2013-03-04 03:12:00,
2013-03-03 18:18:00,36.6,30.4,30.21,ENE,74,9.0,16.0,78,0.00,,,0.00,Wunderground v.1.15,2013-03-04 03:18:00,
2013-03-03 18:24:00,36.4,30.2,30.22,NE,46,8.0,16.0,78,0.00,,,0.00,Wunderground v.1.15,2013-03-04 03:24:00,
2013-03-03 18:29:00,36.2,30.0,30.22,East,79,7.0,16.0,78,0.00,,,0.00,Wunderground v.1.15,2013-03-04 03:29:00,
2013-03-03 18:35:00,36.1,30.2,30.23,North,354,7.0,16.0,79,0.00,,,0.00,Wunderground v.1.15,2013-03-04 03:35:00,
2013-03-03 18:41:00,36.0,30.1,30.23,NNE,26,8.0,8.0,79,0.00,,,0.00,Wunderground v.1.15,2013-03-04 03:41:00,
2013-03-03 18:46:00,36.1,30.2,30.23,NNE,31,7.0,16.0,79,0.00,,,0.00,Wunderground v.1.15,2013-03-04 03:46:00,
2013-03-03 18:52:00,36.3,30.4,30.23,NE,55,8.0,16.0,79,0.00,,,0.00,Wunderground v.1.15,2013-03-04 03:52:00,
2013-03-03 18:58:00,36.2,30.3,30.24,North,359,8.0,16.0,79,0.00,,,0.00,Wunderground v.1.15,2013-03-04 03:58:00,
2013-03-03 19:03:00,36.1,30.5,30.24,NE,44,7.0,14.0,80,0.00,,,0.00,Wunderground v.1.15,2013-03-04 04:03:00,
2013-03-03 19:09:00,36.1,30.5,30.24,NE,34,8.0,14.0,80,0.00,,,0.00,Wunderground v.1.15,2013-03-04 04:09:00,
2013-03-03 19:15:00,36.1,30.2,30.23,NNE,16,8.0,14.0,79,0.00,,,0.00,Wunderground v.1.15,2013-03-04 04:15:00,
2013-03-03 19:20:00,36.2,30.3,30.24,North,4,7.0,14.0,79,0.00,,,0.00,Wunderground v.1.15,2013-03-04 04:20:00,
2013-03-03 19:25:00,36.2,30.3,30.24,NNE,31,8.0,14.0,79,0.00,,,0.00,Wunderground v.1.15,2013-03-04 04:25:00,
2013-03-03 19:31:00,36.2,30.3,30.24,NE,39,8.0,14.0,79,0.00,,,0.00,Wunderground v.1.15,2013-03-04 04:31:00,
2013-03-03 19:37:00,36.2,30.3,30.25,ENE,70,8.0,14.0,79,0.00,,,0.00,Wunderground v.1.15,2013-03-04 04:37:00,
2013-03-03 19:43:00,36.2,30.0,30.25,North,10,8.0,14.0,78,0.00,,,0.00,Wunderground v.1.15,2013-03-04 04:43:00,
2013-03-03 19:49:00,36.1,30.2,30.25,NE,56,6.0,14.0,79,0.00,,,0.00,Wunderground v.1.15,2013-03-04 04:49:00,
2013-03-03 19:55:00,36.0,30.1,30.25,NNE,29,6.0,14.0,79,0.00,,,0.00,Wunderground v.1.15,2013-03-04 04:55:00,
2013-03-03 20:00:00,36.0,30.1,30.26,NE,41,6.0,6.0,79,0.00,,,0.00,Wunderground v.1.15,2013-03-04 05:00:00,
2013-03-03 20:01:00,36.0,30.1,30.26,NNE,31,6.0,11.0,79,0.00,,,0.00,Wunderground v.1.15,2013-03-04 05:01:00,
2013-03-03 20:07:00,36.0,30.1,30.26,NNE,29,5.0,11.0,79,0.00,,,0.00,Wunderground v.1.15,2013-03-04 05:07:00,
2013-03-03 20:08:00,36.1,30.2,30.25,ENE,68,5.0,11.0,79,0.00,,,0.00,Wunderground v.1.15,2013-03-04 05:08:00,
2013-03-03 20:14:00,35.9,30.0,30.26,ENE,58,5.0,13.0,79,0.00,,,0.00,Wunderground v.1.15,2013-03-04 05:14:00,
2013-03-03 20:19:00,35.9,30.0,30.26,ENE,64,5.0,13.0,79,0.00,,,0.00,Wunderground v.1.15,2013-03-04 05:19:00,
2013-03-03 20:25:00,36.2,30.3,30.26,NNW,343,7.0,12.0,79,0.00,,,0.00,Wunderground v.1.15,2013-03-04 05:25:00,
2013-03-03 20:30:00,36.2,30.3,30.26,NE,45,7.0,9.0,79,0.00,,,0.00,Wunderground v.1.15,2013-03-04 05:30:00,
2013-03-03 20:36:00,36.1,30.2,30.26,NNE,27,6.0,11.0,79,0.00,,,0.00,Wunderground v.1.15,2013-03-04 05:36:00,
2013-03-03 20:42:00,36.0,30.7,30.27,NE,52,6.0,11.0,81,0.00,,,0.00,Wunderground v.1.15,2013-03-04 05:42:00,
2013-03-03 20:48:00,35.9,30.6,30.27,North,8,7.0,11.0,81,0.00,,,0.00,Wunderground v.1.15,2013-03-04 05:48:00,
2013-03-03 20:53:00,35.9,30.6,30.27,NE,54,8.0,11.0,81,0.00,,,0.00,Wunderground v.1.15,2013-03-04 05:53:00,
2013-03-03 20:59:00,35.8,30.5,30.27,East,82,8.0,11.0,81,0.00,,,0.00,Wunderground v.1.15,2013-03-04 05:59:00,
2013-03-03 21:05:00,35.7,30.7,30.27,North,4,7.0,16.0,82,0.00,,,0.00,Wunderground v.1.15,2013-03-04 06:05:00,
2013-03-03 21:10:00,35.7,30.7,30.27,ENE,76,7.0,7.0,82,0.00,,,0.00,Wunderground v.1.15,2013-03-04 06:10:00,
2013-03-03 21:16:00,35.6,30.6,30.27,ENE,58,7.0,16.0,82,0.00,,,0.00,Wunderground v.1.15,2013-03-04 06:16:00,
2013-03-03 21:21:00,35.8,30.8,30.27,NE,34,8.0,16.0,82,0.00,,,0.00,Wunderground v.1.15,2013-03-04 06:21:00,
2013-03-03 21:27:00,35.8,30.8,30.28,NE,50,8.0,16.0,82,0.00,,,0.00,Wunderground v.1.15,2013-03-04 06:27:00,
2013-03-03 21:33:00,35.6,30.9,30.28,ENE,66,6.0,16.0,83,0.00,,,0.00,Wunderground v.1.15,2013-03-04 06:33:00,
2013-03-03 21:38:00,35.4,30.8,30.28,NE,35,5.0,16.0,83,0.00,,,0.00,Wunderground v.1.15,2013-03-04 06:38:00,
2013-03-03 21:43:00,35.3,30.7,30.28,NNE,31,4.0,16.0,83,0.00,,,0.00,Wunderground v.1.15,2013-03-04 06:43:00,
2013-03-03 21:48:00,35.4,30.8,30.28,NNE,15,4.0,16.0,83,0.00,,,0.00,Wunderground v.1.15,2013-03-04 06:48:00,
2013-03-03 21:54:00,35.7,31.0,30.29,NNE,29,5.0,16.0,83,0.00,,,0.00,Wunderground v.1.15,2013-03-04 06:54:00,
2013-03-03 22:00:00,35.9,30.9,30.29,NNW,344,5.0,5.0,82,0.00,,,0.00,Wunderground v.1.15,2013-03-04 07:00:00,
2013-03-03 22:06:00,35.9,30.9,30.29,NNE,26,4.0,14.0,82,0.00,,,0.00,Wunderground v.1.15,2013-03-04 07:06:00,
2013-03-03 22:12:00,36.0,30.7,30.29,NNE,18,4.0,14.0,81,0.00,,,0.00,Wunderground v.1.15,2013-03-04 07:12:00,
2013-03-03 22:18:00,36.1,30.5,30.29,ENE,66,4.0,14.0,80,0.00,,,0.00,Wunderground v.1.15,2013-03-04 07:18:00,
2013-03-03 22:24:00,36.0,30.7,30.30,East,88,2.0,14.0,81,0.00,,,0.00,Wunderground v.1.15,2013-03-04 07:24:00,
2013-03-03 22:29:00,35.9,30.6,30.30,NE,56,1.0,14.0,81,0.00,,,0.00,Wunderground v.1.15,2013-03-04 07:29:00,
2013-03-03 22:35:00,36.3,30.7,30.30,NNE,19,2.0,14.0,80,0.00,,,0.00,Wunderground v.1.15,2013-03-04 07:35:00,
2013-03-03 22:41:00,36.8,30.9,30.30,NE,52,5.0,14.0,79,0.00,,,0.00,Wunderground v.1.15,2013-03-04 07:41:00,
2013-03-03 22:46:00,37.3,30.4,30.30,ENE,64,6.0,18.0,76,0.00,,,0.00,Wunderground v.1.15,2013-03-04 07:46:00,
2013-03-03 22:51:00,37.5,30.6,30.30,ENE,68,6.0,14.0,76,0.00,,,0.00,Wunderground v.1.15,2013-03-04 07:51:00,
2013-03-03 22:56:00,37.3,30.4,30.30,East,87,4.0,14.0,76,0.00,,,0.00,Wunderground v.1.15,2013-03-04 07:56:00,
2013-03-03 23:02:00,37.2,30.3,30.30,North,8,3.0,11.0,76,0.00,,,0.00,Wunderground v.1.15,2013-03-04 08:02:00,
2013-03-03 23:07:00,37.3,30.4,30.30,North,4,3.0,11.0,76,0.00,,,0.00,Wunderground v.1.15,2013-03-04 08:07:00,
2013-03-03 23:13:00,37.3,30.1,30.31,NNW,330,2.0,11.0,75,0.00,,,0.00,Wunderground v.1.15,2013-03-04 08:13:00,
2013-03-03 23:19:00,37.3,30.1,30.30,North,359,1.0,11.0,75,0.00,,,0.00,Wunderground v.1.15,2013-03-04 08:19:00,
2013-03-03 23:25:00,37.4,30.2,30.31,NNE,23,1.0,11.0,75,0.00,,,0.00,Wunderground v.1.15,2013-03-04 08:25:00,
2013-03-03 23:30:00,37.5,30.3,30.31,ENE,57,3.0,11.0,75,0.00,,,0.00,Wunderground v.1.15,2013-03-04 08:30:00,
2013-03-03 23:36:00,37.5,30.3,30.31,NNE,16,2.0,11.0,75,0.00,,,0.00,Wunderground v.1.15,2013-03-04 08:36:00,
2013-03-03 23:42:00,37.3,30.1,30.32,NNE,16,0.0,11.0,75,0.00,,,0.00,Wunderground v.1.15,2013-03-04 08:42:00,
2013-03-03 23:48:00,37.3,30.1,30.32,WNW,287,1.0,11.0,75,0.00,,,0.00,Wunderground v.1.15,2013-03-04 08:48:00,
2013-03-03 23:53:00,37.3,29.8,30.32,WNW,296,3.0,11.0,74,0.00,,,0.00,Wunderground v.1.15,2013-03-04 08:53:00,
2013-03-03 23:59:00,37.6,29.7,30.32,WNW,292,4.0,11.0,73,0.00,,,0.00,Wunderground v.1.15,2013-03-04 08:59:00,